Location: Spruce Knob
(38.6995°N, 79.5330°W)
Time: 09:57:34
(UTC-04:00)

DELFI C3 - Visible Passes

Search period start: 21 March 2023 00:00
Search period end: 31 March 2023 00:00
Orbit: 478 x 492 km, 97.3° (Epoch: 20 March)

Date Brightness Start Highest point End Pass type
(mag) Time Alt. Az. Time Alt. Az. Time Alt. Az.
21 Mar ? 20:58:30 10° WSW 20:59:35 11° W 21:00:40 10° WNW visible
22 Mar ? 20:32:16 10° SSW 20:35:07 22° W 20:37:59 10° NW visible
23 Mar ? 20:07:13 10° S 20:10:40 48° W 20:14:07 10° NNW visible
25 Mar ? 20:53:38 10° WSW 20:55:15 13° W 20:56:51 10° WNW visible
26 Mar ? 20:27:26 10° SSW 20:30:26 26° W 20:33:27 10° NW visible
27 Mar ? 20:02:08 10° S 20:05:36 57° W 20:09:07 10° NNW visible
29 Mar ? 20:47:19 10° SW 20:49:24 15° W 20:51:30 10° WNW visible
30 Mar ? 20:21:05 10° SSW 20:24:15 31° W 20:27:27 10° NNW visible
